Date String (YYYY-MM-DD hh:mm:ss) UTC,Instrument flags,Ambient pressure (hPa),Sample flow (lpm),Bypass flow (lpm),Sample temperature (°C),Ambient temperature (°C),ASC tube jacket temperature (°C),LED temperature (°C),Box temperature (°C),Sample RH (%),Span deviation,Mass concentration (μg/m³),Mass concentration (μg/m³),Mass concentration (μg/m³)
DateTimeUTC,F1_M11,P_M11,Q1_M11,Q2_M11,T1_M11,T2_M11,T3_M11,T4_M11,T5_M11,U1_M11,ZSPAN_M11,X0_M11,X2_M11,X1_M11
2022-02-11 18:00:00,,0827.8,5.01,0.00,21.3,20.7,00.0,30.4,23.0,14.1,0000.0,0003.69,0001.32,0001.00
2022-02-11 18:01:00,,0827.8,5.00,0.00,21.3,20.7,00.0,30.4,23.0,14.3,0000.0,0003.45,0001.34,0001.01
2022-02-11 18:02:00,,0827.9,4.99,0.00,21.3,20.7,00.0,30.4,23.0,14.2,0000.0,0003.34,0001.32,0001.01
2022-02-11 18:03:00,,0828.0,5.02,0.00,21.3,20.7,00.0,30.4,23.0,14.1,0000.0,0003.48,0001.35,0001.01
2022-02-11 18:04:00,,0827.8,4.99,0.00,21.3,20.7,00.0,30.4,23.0,14.1,0000.0,0003.64,0001.35,0001.00
2022-02-11 18:05:00,,0827.9,5.00,0.00,21.3,20.9,00.0,30.4,23.1,14.0,0000.0,0003.74,0001.37,0001.00
2022-02-11 18:06:00,,0827.9,5.00,0.00,21.5,21.8,00.0,30.5,23.4,14.0,0000.0,0003.69,0001.38,0001.00
2022-02-11 18:07:00,,0828.0,5.02,0.00,21.7,22.8,00.0,30.5,23.7,14.0,0000.0,0004.52,0001.41,0001.01
2022-02-11 18:08:00,,0828.0,4.99,0.00,21.8,22.8,00.0,30.6,23.9,13.7,0000.0,0004.62,0001.42,0001.00
2022-02-11 18:09:00,,0828.0,5.00,0.00,21.8,22.5,00.0,30.6,23.8,13.5,0000.0,0004.64,0001.46,0001.02
2022-02-11 18:10:00,,0828.0,5.00,0.00,21.8,22.3,00.0,30.6,23.7,13.6,0000.0,0004.00,0001.49,0001.04
2022-02-11 18:11:00,,0827.9,4.99,0.00,21.8,22.1,00.0,30.6,23.6,13.7,0000.0,0003.73,0001.53,0001.05
2022-02-11 18:12:00,,0827.9,5.00,0.00,21.8,21.9,00.0,30.7,23.6,13.5,0000.0,0003.71,0001.54,0001.06
2022-02-11 18:13:00,,0828.0,5.02,0.00,21.8,21.7,00.0,30.7,23.6,13.6,0000.0,0003.94,0001.57,0001.07
2022-02-11 18:14:00,,0827.9,5.00,0.00,21.8,21.5,00.0,30.7,23.5,13.6,0000.0,0004.01,0001.62,0001.08
2022-02-11 18:15:00,,0828.0,4.99,0.00,21.7,21.4,00.0,30.7,23.5,13.6,0000.0,0003.99,0001.63,0001.10
2022-02-11 18:16:00,,0828.0,5.01,0.00,21.7,21.3,00.0,30.7,23.4,13.5,0000.0,0004.03,0001.64,0001.10
2022-02-11 18:17:00,,0827.9,5.00,0.00,21.7,21.3,00.0,30.7,23.4,13.7,0000.0,0004.09,0001.66,0001.10
2022-02-11 18:18:00,,0827.9,5.00,0.00,21.7,21.2,00.0,30.7,23.4,13.8,0000.0,0003.43,0001.65,0001.10
2022-02-11 18:19:00,,0827.9,4.99,0.00,21.7,21.2,00.0,30.7,23.4,13.9,0000.0,0003.22,0001.68,0001.12
2022-02-11 18:20:00,,0827.8,5.00,0.00,21.7,21.2,00.0,30.7,23.4,13.9,0000.0,0003.23,0001.68,0001.12
2022-02-11 18:21:00,,0827.8,4.99,0.00,21.6,21.1,00.0,30.7,23.3,13.8,0000.0,0003.29,0001.69,0001.11
2022-02-11 18:22:00,,0827.9,5.01,0.00,21.6,21.1,00.0,30.7,23.3,13.7,0000.0,0003.30,0001.70,0001.11
2022-02-11 18:23:00,,0827.8,5.00,0.00,21.6,21.1,00.0,30.7,23.2,13.8,0000.0,0003.64,0001.71,0001.11
2022-02-11 18:24:00,,0827.8,5.00,0.00,21.6,21.0,00.0,30.7,23.3,13.9,0000.0,0003.48,0001.67,0001.11
2022-02-11 18:25:00,,0827.8,4.99,0.00,21.6,21.0,00.0,30.6,23.2,13.9,0000.0,0003.21,0001.59,0001.09
2022-02-11 18:26:00,,0827.8,5.00,0.00,21.6,20.9,00.0,30.6,23.2,13.7,0000.0,0003.18,0001.61,0001.10
2022-02-11 18:27:00,,0827.8,5.00,0.00,21.5,20.8,00.0,30.6,23.1,13.7,0000.0,0003.23,0001.61,0001.10
2022-02-11 18:28:00,,0827.8,4.99,0.00,21.5,20.8,00.0,30.6,23.1,13.7,0000.0,0003.24,0001.58,0001.09
2022-02-11 18:29:00,,0827.8,5.01,0.00,21.5,20.8,00.0,30.6,23.2,13.8,0000.0,0003.81,0001.58,0001.08
2022-02-11 18:30:00,,0827.8,4.99,0.00,21.5,20.8,00.0,30.6,23.2,14.0,0000.0,0004.73,0001.56,0001.07
2022-02-11 18:31:00,,0827.8,5.01,0.00,21.5,20.9,00.0,30.6,23.2,13.9,0000.0,0004.76,0001.55,0001.06
2022-02-11 18:32:00,,0827.7,4.99,0.00,21.5,20.9,00.0,30.6,23.2,14.0,0000.0,0004.67,0001.49,0001.05
2022-02-11 18:33:00,,0827.7,5.01,0.00,21.5,20.9,00.0,30.6,23.2,13.9,0000.0,0004.63,0001.44,0001.05
2022-02-11 18:34:00,,0827.7,5.01,0.00,21.5,20.9,00.0,30.6,23.2,13.8,0000.0,0004.42,0001.41,0001.04
2022-02-11 18:35:00,,0827.7,4.99,0.00,21.5,20.9,00.0,30.6,23.2,13.7,0000.0,0004.64,0001.41,0001.03
2022-02-11 18:36:00,,0827.7,5.02,0.00,21.5,20.9,00.0,30.6,23.2,13.7,0000.0,0004.65,0001.43,0001.03
2022-02-11 18:37:00,,0827.7,4.98,0.00,21.5,20.9,00.0,30.5,23.2,13.7,0000.0,0004.64,0001.43,0001.03
2022-02-11 18:38:00,,0827.7,5.01,0.00,21.5,20.9,00.0,30.5,23.2,13.8,0000.0,0004.54,0001.41,0001.03
2022-02-11 18:39:00,,0827.7,4.99,0.00,21.5,20.9,00.0,30.5,23.1,13.7,0000.0,0004.45,0001.43,0001.05
2022-02-11 18:40:00,,0827.7,5.00,0.00,21.5,20.9,00.0,30.5,23.1,13.8,0000.0,0004.01,0001.42,0001.06
2022-02-11 18:41:00,,0827.7,5.00,0.00,21.4,20.9,00.0,30.5,23.1,13.8,0000.0,0002.90,0001.43,0001.06
2022-02-11 18:42:00,,0827.7,4.99,0.00,21.4,20.9,00.0,30.5,23.1,13.9,0000.0,0003.11,0001.45,0001.07
2022-02-11 18:43:00,,0827.6,5.01,0.00,21.4,20.8,00.0,30.5,23.0,13.8,0000.0,0003.42,0001.49,0001.08
2022-02-11 18:44:00,,0827.7,4.99,0.00,21.4,21.0,00.0,30.5,23.1,13.8,0000.0,0003.52,0001.56,0001.10
2022-02-11 18:45:00,,0827.7,5.00,0.00,21.6,21.8,00.0,30.6,23.4,13.6,0000.0,0003.54,0001.59,0001.11
2022-02-11 18:46:00,,0827.7,5.02,0.00,21.7,22.7,00.0,30.6,23.8,13.5,0000.0,0003.27,0001.60,0001.12
2022-02-11 18:47:00,,0827.8,4.99,0.00,21.9,22.7,00.0,30.6,24.0,13.5,0000.0,0003.28,0001.63,0001.14
2022-02-11 18:48:00,,0827.8,5.01,0.00,21.9,22.4,00.0,30.7,23.9,13.5,0000.0,0003.24,0001.61,0001.14
2022-02-11 18:49:00,,0827.8,4.99,0.00,21.9,22.0,00.0,30.7,23.8,13.6,0000.0,0003.25,0001.64,0001.15
2022-02-11 18:50:00,,0827.8,4.99,0.00,21.9,21.7,00.0,30.7,23.7,13.7,0000.0,0003.26,0001.63,0001.15
2022-02-11 18:51:00,,0827.8,4.99,0.00,21.8,21.5,00.0,30.7,23.6,13.7,0000.0,0003.31,0001.67,0001.15
2022-02-11 18:52:00,,0827.7,5.01,0.00,21.8,21.2,00.0,30.7,23.4,13.6,0000.0,0003.37,0001.70,0001.17
2022-02-11 18:53:00,,0827.7,4.99,0.00,21.7,21.1,00.0,30.7,23.4,13.7,0000.0,0003.20,0001.73,0001.18
2022-02-11 18:54:00,,0827.7,5.02,0.00,21.7,20.9,00.0,30.6,23.3,13.7,0000.0,0002.70,0001.68,0001.18
2022-02-11 18:55:00,,0827.7,4.98,0.00,21.6,20.8,00.0,30.6,23.2,13.7,0000.0,0002.79,0001.66,0001.17
2022-02-11 18:56:00,,0827.7,5.01,0.00,21.6,20.8,00.0,30.6,23.1,13.8,0000.0,0004.45,0001.67,0001.18
2022-02-11 18:57:00,,0827.7,4.99,0.00,21.5,20.8,00.0,30.6,23.1,13.9,0000.0,0005.09,0001.72,0001.18
2022-02-11 18:58:00,,0827.7,5.00,0.00,21.5,20.8,00.0,30.6,23.1,13.9,0000.0,0006.14,0001.72,0001.17
2022-02-11 18:59:00,,0827.7,5.01,0.00,21.5,20.8,00.0,30.6,23.0,14.0,0000.0,0006.90,0001.70,0001.17
